User: anonymous   Login
Location: Alvis C Story Elementary School
(33.0968°N, 96.6364°W)
Time: 09:57:51
(UTC+00:00)
Language:

Meteor 2-15 Rocket - Orbit

View from above orbital plane
View from above orbital plane
View from above satellite
View from above satellite

Ground track
Ground track

The orbit data is extracted from the following two-line orbital elements,

1 17291U 87001B   22148.89165755  .00000037  00000-0  19808-4 0  9999
2 17291  82.4690 209.8481 0011729  25.2953 334.8779 13.84594187788430
Epoch (UTC): 28 May 2022 21:23:59
Eccentricity: 0.0011729
inclination: 82.4690°
perigee height: 939 km
apogee height: 956 km
right ascension of ascending node: 209.8481°
argument of perigee: 25.2953°
revolutions per day: 13.84594187
mean anomaly at epoch: 334.8779°
orbit number at epoch: 78843

The dashed part of the orbit path shows where the satellite is in the earth's shadow,  

DLR